717  
ASUS43 KLOT 150110  
RWRIL  
 
ILLINOIS REGIONAL WEATHER ROUNDUP  
NATIONAL WEATHER SERVICE CHICAGO/ROMEOVILLE IL  
800 PM CDT FRI JUN 14 2024  
 
NOTE: "FAIR" INDICATES FEW OR NO CLOUDS BELOW 12,000 FEET WITH NO  
SIGNIFICANT WEATHER AND/OR S TO VISIBILITY
.  
 
* THESE STATIONS ARE NOT UNDER NWS QUALITY CONTROL. THEY ALSO MAY NOT  
REPORT WEATHER SUCH AS PRECIPITATION OR FOG.
 
 
ILZ001-002-007-009-015-016-024-150200-  
NORTHWEST ILLINOIS  
 
CITY SKY/WX TMP DP RH WIND PRES REMARKS
 
MOLINE PTCLDY 80 51 36 N5 30.01R HX 80 TC 27  
STERLING* PTCLDY 78 54 43 N5 30.03R TC 26  
SAVANNA* PTCLDY 75 55 50 N3 30.03S TC 24  

 
 
ILZ003-004-008-010-011-017-018-150200-  
NORTH CENTRAL ILLINOIS  
 
CITY SKY/WX TMP DP RH WIND PRES REMARKS
 
ROCKFORD PTCLDY 76 53 44 E7 30.05R TC 24  
FREEPORT* PTCLDY 74 54 49 E7 30.06R TC 23  
ROCHELLE* CLEAR 75 49 41 E14 30.04S TC 24  
DE KALB* CLEAR 73 47 40 E9 30.06R TC 23  
PERU* CLEAR 77 54 45 N5 30.01S TC 25  

 
 
ILZ005-006-012>014-019>023-150200-  
NORTHEAST ILLINOIS  
 
CITY SKY/WX TMP DP RH WIND PRES REMARKS
 
CHICAGO-OHARE PTCLDY 69 48 47 NE14 30.05R TC 21  
CHICAGO-MIDWAY PTCLDY 70 48 45 NE14 30.05R TC 21  
AURORA CLEAR 74 51 44 E9 30.04R TC 23  
JOLIET* CLEAR 74 55 51 NE10G17 30.03R TC 23  
WAUKEGAN CLEAR 66 42 41 N9G22 30.06R TC 19  
DUPAGE AIRPORT CLEAR 71 50 47 E8 30.04R TC 22  
KANKAKEE* CLEAR 71 57 60 NE13G21 30.02R TC 22  
WHEELING CLEAR 67 48 50 NE10 30.07R TC 19  
MORRIS* CLEAR 76 56 49 NE7 30.02R TC 25  
ROMEOVILLE* CLEAR 73 54 49 NE16G23 30.04R TC 23  
LANSING* CLEAR 65 57 75 NE13G18 30.05R TC 19  
NORTHERLY ISL* N/A 64 53 67 N13 N/A TC 18  

 
 
LMZ740>746-150200-  
SOUTHERN LAKE MICHIGAN  
 
STATION/POSITION SKY/WX TEMP WIND PRES VSBY WAVE
 
AIR SEA DIR/SP/G HT/PER  
(F) (DEG/KT/KT) (MB) (MI) (FT/S)  
S. MID LAKE BUOY 61 59 360/ 14/ 16 1017.5F 3/ 4  
WINTHROP HARBOR 62 61 340/ 12/ 16 N/A 2/ 4  
WAUKEGAN HARBOR 63 61 200/ 14/ 17 N/A 2/ 4  
WILMETTE BUOY 63 62 310/ 14/ 17 1016.4R 4/ 4  
CHICAGO BUOY 64 65 60/ 12/ 16 1018.2 3/ 4  
HARRISON CRIB 71 360/ 16/ 17 N/A  
NORTHERLY ISL 63 350/ 8/ 14 N/A  
CALUMET HARBOR 64 340/ 11/ 15 1016.6  
BURNS HARBOR 66 30/ 7/ 7 1017.9R  
MICHIGAN CITY 66 100/ 11/ 12 1016.2R  
MICH CITY BUOY 66 20/ 10/ 14 1017.1R 2/ 4  
ST. JOSEPH BUOY 66 67 30/ 14/ 17 1017.5R 3/ 4  

 
 
ILZ025>027-034>036-040-047-049-050-058-095>099-150200-  
WEST-CENTRAL ILLINOIS  
 
CITY SKY/WX TMP DP RH WIND PRES REMARKS
 
QUINCY CLEAR 82 58 43 N5 30.01S HX 82 TC 28  
GALESBURG* PTCLDY 77 62 60 W5 30.03S TC 25  
MACOMB* CLEAR 77 60 55 NW6 30.04R TC 25  
JACKSONVILLE* CLEAR 81 57 43 N3 30.01S HX 81 TC 27  
PITTSFIELD* CLEAR 81 59 47 CALM 30.03S HX 81 TC 27  

 
 
ILZ028>032-037-038-041>044-048-051>054-059>061-150200-  
CENTRAL ILLINOIS  
 
CITY SKY/WX TMP DP RH WIND PRES REMARKS
 
PONTIAC CLEAR 77 49 37 NW6 30.00S TC 25  
BLOOMINGTON CLEAR 79 52 38 NW7 30.02R TC 26  
DECATUR CLEAR 81 57 43 N6 30.00S HX 81 TC 27  
PEORIA CLEAR 80 53 39 NW3 30.00S HX 80 TC 27  
LACON* CLEAR 76 55 48 MISG 30.00R TC 24  
LINCOLN* CLEAR 82 55 40 CALM 30.00S HX 81 TC 28  
SPRINGFIELD CLEAR 82 57 42 NW5 30.00S HX 82 TC 28  
TAYLORVILLE CLEAR 80 57 44 NE5 30.00S HX 81 TC 27  

 
 
ILZ033-039-045-046-055>057-062-063-150200-  
EAST-CENTRAL ILLINOIS  
 
CITY SKY/WX TMP DP RH WIND PRES REMARKS
 
CHAMPAIGN CLEAR 80 56 43 NW8 30.01R HX 80 TC 27  
DANVILLE* CLEAR 80 55 42 CALM 30.00S HX 80 TC 27  
RANTOUL* CLEAR 78 57 48 NW6 30.00S TC 26  
MATTOON CLEAR 82 51 34 NE5 29.99R HX 81 TC 28  
PARIS* CLEAR 76 56 49 CALM 30.01R TC 25  

 
 
ILZ079-100>102-150200-  
SOUTHWEST ILLINOIS  
 
CITY SKY/WX TMP DP RH WIND PRES REMARKS
 
ALTON CLEAR 84 54 34 N6 30.00S HX 83 TC 29  
BELLEVILLE CLEAR 83 57 40 N7 29.97R HX 83 TC 29  
CAHOKIA* CLEAR 84 57 39 N8 29.99R HX 83 TC 29  
SPARTA* CLEAR 84 59 42 N5 29.99R HX 84 TC 29  

 
 
ILZ064>066-069>071-074>076-080>082-084>086-088>090-092>094-150200-  
SOUTH-CENTRAL ILLINOIS  
 
CITY SKY/WX TMP DP RH WIND PRES REMARKS
 
CARBONDALE CLEAR 85 61 44 N6 29.95R HX 85 TC 29  
CAIRO* CLEAR 87 73 61 CALM 29.94S HX 94 TC 31  
EFFINGHAM* CLEAR 82 49 32 CALM 30.01R HX 80 TC 28  
MARION CLEAR 83 61 47 N3 29.96S HX 83 TC 28  
MT. VERNON CLEAR 83 58 42 N3 29.97R HX 83 TC 28  
CENTRALIA* CLEAR 85 54 34 N7 29.98R HX 83 TC 29  
SALEM* CLEAR 85 53 33 N3 29.98S HX 83 TC 30  
METROPOLIS* CLEAR 82 76 82 CALM 29.94R HX 89 TC 28  

 
 
ILZ067-068-072-073-078-083-087-091-150200-  
SOUTHEAST ILLINOIS  
 
CITY SKY/WX TMP DP RH WIND PRES REMARKS
 
LAWRENCEVILLE CLEAR 85 55 35 N8 29.96R HX 83 TC 29  
FLORA* CLEAR 84 54 34 N7 29.98R HX 83 TC 29  
FAIRFIELD* CLEAR 83 55 37 N5 29.96R HX 82 TC 28  
HARRISBURG* CLEAR 84 65 52 N6 29.95R HX 85 TC 29  
ROBINSON* CLEAR 79 55 44 N6 29.98R TC 26  
CARMI* CLEAR 87 59 38 N8 29.94R HX 86 TC 30  

 
 
ABBREVIATIONS USED IN REMARKS  
TC - TEMPERATURE IN CELSIUS  
WCI - WIND CHILL INDEX  
HX - HEAT INDEX  
VSB - VISIBILITY  

 
 
 
 
CLICK HERE TO GO TO PREVIOUS BULLETINS.

The Nexlab IL Page Main Text Page